Regional Weather Roundup
Issued by NWS

Home | Current Version | Previous Version | Graphics & Text | Print | Product List | Glossary On
Versions: 1 2 3 4 5 6 7 8 9 10 11 12 13 14 15 16 17 18 19 20 21 22 23 24 25 26 27 28 29 30 31 32 33 34 35 36 37 38 39 40 41 42 43 44 45 46 47 48 49 50
365
ASUS43 KMPX 070401
RWRMN
WEATHER ROUNDUP FOR MINNESOTA
NATIONAL WEATHER SERVICE TWIN CITIES/CHANHASSEN MN
1000 PM CST TUE DEC 06 2016


NOTE: "FAIR" INDICATES FEW OR NO CLOUDS BELOW 12,000 FEET WITH NO
SIGNIFICANT WEATHER AND/OR OBSTRUCTIONS TO VISIBILITY. N/A MEANS
CURRENT SKY AND/OR WEATHER CONDITIONS ARE NOT AVAILABLE.

MNZ060>063-068>070-070500-
   Twin Cities Metro

CITY           SKY/WX    TMP DP  RH WIND       PRES   REMARKS
TWIN CITIES    FLURRIES  19  10  68 W18G26    29.83R WCI   4
ST PAUL        FLURRIES  19  12  74 W20G30    29.84R WCI   3
CRYSTAL        FLURRIES  20   9  62 W17G28    29.80R WCI   5
BLAINE         FLURRIES  21  12  68 W17G28    29.78R WCI   7
LAKEVILLE      FLURRIES  16  10  79 W17G25    29.84R WCI   0
EDEN PRAIRIE   FLURRIES  18   9  68 W17G31    29.83R WCI   3
SOUTH ST PAUL  FLURRIES  19  11  70 W16G26    29.83R WCI   5
LAKE ELMO      FLURRIES  21  14  73 W17G25    29.81R WCI   7
$$
MNZ001>005-007-008-013>017-022>024-027-028-070500-
   Northwest Minnesota

CITY           SKY/WX    TMP DP  RH WIND       PRES   REMARKS
BEMIDJI        LGT SNOW  19  16  88 W23G30    29.52R WCI   2
HALLOCK        LGT SNOW  21  19  93 NW33G43   29.58R VSB 1   WCI   2
ROSEAU         FLURRIES  27  21  80 NW13      29.47R WCI  16
WARROAD        CLOUDY    21  18  86 W6        29.46R WCI  14
THIEF RVR FALL LGT SNOW  18  16  92 W26G33    29.58R VSB 3/4 WCI  -1
CROOKSTON      LGT SNOW  18  16  93 NW30G40   29.65R VSB 3/4 WCI  -2
FOSSTON        LGT SNOW  16  14  93 W25G31    29.60R WCI  -3
DETROIT LAKES  LGT SNOW  14  12  92 W25G33    29.68R VSB 1   WCI  -5
MOORHEAD       CLOUDY    16   9  73 W31G39    29.77R WCI  -5
PARK RAPIDS    LGT SNOW  17  10  74 W30G36    29.59R VSB 1   WCI  -3
$$
MNZ006-009>011-018-025>026-070500-
   North Central Minnesota

CITY           SKY/WX    TMP DP  RH WIND       PRES   REMARKS
BAUDETTE       CLOUDY    21  18  88 W6        29.44S WCI  13
FLAG ISLAND    FLURRIES  23  21  93 SW7       29.43S WCI  15
INTL FALLS     LGT SNOW  20  17  88 W3        29.44R FOG
WASKISH        FLURRIES  25  21  86 W13       29.46S WCI  13
BIG FORK       FLURRIES  23  18  80 W6        29.46R WCI  16
LONGVILLE      LGT SNOW  19  16  86 SW14      29.55R WCI   6
GRAND RAPIDS   FLURRIES  23  19  85 W12G21    29.51R WCI  12
CRANE LAKE     LGT SNOW  18  18 100 CALM      29.45R VSB 1
ORR            MIX PCPN  19  18  93 W6        29.40R WCI  11
COOK           LGT SNOW  21  19  93 W10       29.44R WCI  10
$$
MNZ012-019>021-037-070500-
   Northeast Minnesota

CITY           SKY/WX    TMP DP  RH WIND       PRES   REMARKS
DULUTH         LGT SNOW  20  16  84 W24G33    29.50R FOG     WCI   3
ELY            LGT SNOW  19  18  93 SW7       29.42S WCI  10
HIBBING        LGT SNOW  22  18  85 W6G18     29.47R FOG     WCI  14
EVELETH        FLURRIES  23  20  89 SW14      29.47R WCI  10
DULUTH HARBOR  LGT SNOW  23  19  86 SW22G28   29.57R WCI   8
TWO HARBORS    FLURRIES  25  18  74 SW14      29.49R WCI  13
SILVER BAY     LGT SNOW  21  19  93 SW10G16   29.47R WCI  10
GRAND MARAIS     N/A     25  23  92 W8G18     29.51S WCI  16
G MARAIS ARPRT LGT SNOW  18  12  79 SW10      29.43F WCI   6
$$
MNZ029>031-032-039>041-046>048-054>057-064-070500-
   West Central Minnesota

CITY           SKY/WX    TMP DP  RH WIND       PRES   REMARKS
FERGUS FALLS   LGT SNOW  14  10  85 W23G32    29.83R WCI  -5
WHEATON        FLURRIES  16  10  79 W25G33    29.87R WCI  -3
MORRIS         FLURRIES  16  10  79 W32G43    29.82R WCI  -5
ALEXANDRIA     LGT SNOW  14  11  87 W26G35    29.76R FOG     WCI  -6
ELBOW LAKE     LGT SNOW  13  11  90 NW26G35   29.81R WCI  -7
WADENA         LGT SNOW  14  10  85 W13G24    29.67R WCI   0
GLENWOOD       LGT SNOW  14  10  85 W24G39    29.78R WCI  -5
APPLETON       CLOUDY    18   9  68 W29       29.86R WCI  -2
BENSON         FLURRIES  16   9  73 NW26G36   29.84R WCI  -3
ORTONVILLE     CLOUDY    16   7  67 W24G33    29.88R WCI  -3
MADISON        CLOUDY    16   9  73 W24G37    29.92R WCI  -3
WILLMAR        CLOUDY    18  12  79 W23G30    29.85R WCI   0
$$
MNZ033>034-036-042>043-049>051-058-059-070500-
   Central Minnesota

CITY           SKY/WX    TMP DP  RH WIND       PRES   REMARKS
ST CLOUD       FLURRIES  17  12  80 W20G30    29.76R WCI   1
PAYNESVILLE    FLURRIES  16  11  80 W24G33    29.80R WCI  -2
AITKIN         LGT SNOW  21  12  68 SW12G22   29.59R WCI   9
PINE RIVER     FLURRIES  18  12  79 W10G16    29.64R WCI   6
BRAINERD       LGT SNOW  17  12  80 W17G29    29.65R WCI   1
STAPLES        LGT SNOW  16  10  79 W22G28    29.67R WCI  -2
LONG PRAIRIE   LGT SNOW  16  12  86 SW23G30   29.73R WCI  -2
LITTLE FALLS   FLURRIES  19  12  73 W17G25    29.72R WCI   4
LITCHFIELD     FLURRIES  18  12  79 W20G28    29.83R WCI   1
BUFFALO        CLOUDY    19  11  72 W15G28    29.82R WCI   5
MAPLE LAKE     CLOUDY    19  13  77 W20G29    29.80R WCI   3
HUTCHINSON     FLURRIES  16  11  80 W25G31    29.86R WCI  -2
$$
MNZ037-044-045-052-053-070500-
   East Central Minnesota

CITY           SKY/WX    TMP DP  RH WIND       PRES   REMARKS
PRINCETON      FLURRIES  19  12  73 SW18G26   29.74R WCI   4
MORA           FLURRIES  19  12  73 W15G22    29.70R WCI   5
CAMBRIDGE      FLURRIES  21  10  63 SW15G25   29.73R WCI   8
RUSH CITY      CLOUDY    19  12  73 W17G26    29.72R WCI   4
MOOSE LAKE     FLURRIES  21  16  79 SW13G18   29.59R WCI   9
HINCKLEY       FLURRIES  21  16  79 SW17G28   29.67R WCI   7
CLOQUET        LGT SNOW  19  14  79 SW16G23   29.54R WCI   5
MCGREGOR       CLOUDY    21  18  86 SW10G20   29.58R WCI  10
$$
MNZ071>073-080-081-089-090-097-098-070500-
   Southwest Minnesota

CITY           SKY/WX    TMP DP  RH WIND       PRES   REMARKS
MONTEVIDEO     CLOUDY    16   9  73 NW17G26   29.91R WCI   0
GRANITE FALLS  PTCLDY    16  10  76 W25       29.94R WCI  -3
CANBY          PTCLDY    14   8  75 NW20G32   29.94R WCI  -3
MARSHALL       CLEAR     13   6  74 W26G35    29.93R WCI  -7
REDWOOD FALLS  CLOUDY    15   6  67 W25G36    29.92R WCI  -4
OLIVIA         CLEAR     18  10  73 W25G32    29.88R WCI  -1
PIPESTONE      CLEAR     10   7  85 NW23G32   29.94R WCI -10
WINDOM         PTCLDY    12   7  79 W17G33    29.93R WCI  -5
WORTHINGTON    PTCLDY    11   6  81 W23G29    29.96R WCI  -9
JACKSON        FLURRIES  12   7  79 W25G37    29.95R WCI  -8
TRACY          CLEAR     14   8  76 W14G25    29.93R WCI  -1
SLAYTON        CLEAR     10   6  81 W32       29.92R WCI -12
$$
MNZ065>067-074>077-082>085-091>093-070500-
   South Central Minnesota

CITY           SKY/WX    TMP DP  RH WIND       PRES   REMARKS
MANKATO        FLURRIES  16   9  74 W17G31    29.91R WCI   0
NEW ULM        CLOUDY    14   7  73 W17G26    29.92R WCI  -3
ST JAMES       CLOUDY    16   9  73 W20G28    29.95R WCI  -1
FAIRMONT       PTCLDY    15   9  76 W21       29.95R WCI  -2
GLENCOE        CLOUDY    17  12  81 W17G24    29.86R WCI   2
FARIBAULT      FLURRIES  18  10  73 W17G30    29.88R WCI   2
OWATONNA       FLURRIES  18  10  73 W29G36    29.89R WCI  -2
WASECA         FLURRIES  18  10  73 W26G33    29.92R WCI  -1
ALBERT LEA     CLOUDY    21  14  73 W20G31    29.90R WCI   6
$$
MNZ078>079-086>088-094>096-070500-
   Southeast Minnesota

CITY           SKY/WX    TMP DP  RH WIND       PRES   REMARKS
ROCHESTER      FLURRIES  18  11  74 W22G35    29.85R WCI   1
RED WING       CLOUDY    19   9  63 W22G29    29.84R WCI   3
STANTON        FLURRIES  19  11  70 W20G25    29.86R WCI   3
DODGE CENTER   FLURRIES  18  12  79 W23G32    29.86R WCI   0
WINONA         CLOUDY    23  14  68 W7G18     29.88R WCI  15
AUSTIN         CLOUDY    18  12  79 W18G28    29.89R WCI   2
PRESTON        FLURRIES  18  12  76 W22G30    29.88R WCI   1
$$
ABBREVIATIONS USED IN REMARKS
   TC - TEMPERATURES IN CELSIUS
  WCI - WIND CHILL INDEX
   HX - HEAT INDEX
  VSB - VISIBILITY
$$




USA.gov is the U.S. government's official web portal to all federal, state and local government web resources and services.